Regional Weather Roundup
Issued by NWS Wilmington, NC

Home | Current Version | Previous Version | Text Only | Print | Product List | Glossary On
Versions: 1 2 3 4 5 6 7 8 9 10 11 12 13 14 15 16 17 18 19 20 21 22 23 24 25 26 27 28 29 30 31 32 33 34 35 36 37 38 39 40 41 42 43 44 45 46 47 48 49 50
000
ASUS42 KILM 180513
RWRILM
RWRILM
REGIONAL HOURLY WEATHER ROUNDUP
NATIONAL WEATHER SERVICE WILMINGTON NC
100 AM EDT SAT APR 18 2015

NOTE: "FAIR" INDICATES FEW OR NO CLOUDS BELOW 12,000 FEET WITH NO
SIGNIFICANT WEATHER AND/OR OBSTRUCTIONS TO VISIBILITY.

...............WFO WILMINGTON COUNTY WARNING AREA...............

......COASTAL NC AND SC COUNTIES......

CITY           SKY/WX    TMP DP  RH WIND       PRES   REMARKS
WILMINGTON     LGT RAIN  67  65  93 CALM      30.00S
N MYRTLE BEACH CLOUDY    66  65  96 CALM      29.99F FOG
MYRTLE BEACH   CLOUDY    70  66  88 CALM      30.01F

......INLAND NC AND SC COUNTIES.......

CITY           SKY/WX    TMP DP  RH WIND       PRES   REMARKS
LUMBERTON      CLOUDY    65  64  97 CALM      30.00F
ELIZABETHTOWN  CLOUDY    67  66  99 CALM      30.00F
WHITEVILLE     CLOUDY    65  64  96 CALM      30.00F FOG
FLORENCE       FOG       67  65  93 CALM      30.01S VSB 1
DARLINGTON     CLOUDY    66  63  88 NW6       30.04R

....................REST OF NORTH CAROLINA......................

.........EASTERN NC.........

CITY           SKY/WX    TMP DP  RH WIND       PRES   REMARKS
CAPE HATTERAS  CLOUDY    61  60  97 CALM      30.00F
JACKSONVILLE   CLOUDY    63  59  88 CALM      30.01S
MOREHEAD CITY  CLOUDY    65  64  97 CALM      29.99F
KENANSVILLE    CLOUDY    65  63  95 CALM      30.01S
NEW BERN       CLOUDY    64  62  93 CALM      30.01F
ELIZABETH CITY MOCLDY    65  62  90 S3        30.00S

.........CENTRAL NC.........

CITY           SKY/WX    TMP DP  RH WIND       PRES   REMARKS
RALEIGH DURHAM CLOUDY    66  62  87 CALM      30.01S
ROCKY MOUNT    CLOUDY    64  63  96 CALM      30.00S
ROANOKE RAPIDS NOT AVBL
FAYETTEVILLE   CLOUDY    68  65  90 W6        30.00F
HOFFMAN        CLOUDY    64  64  98 SW1       30.05S

.........WESTERN NC.........

CITY           SKY/WX    TMP DP  RH WIND       PRES   REMARKS
CHARLOTTE      CLOUDY    62  59  90 NW3       30.04S
GREENSBORO     CLOUDY    62  60  93 SW3       30.01F
HICKORY        NOT AVBL
BOONE          NOT AVBL
ASHEVILLE      NOT AVBL

.....................REST OF SOUTH CAROLINA.....................

.........EASTERN SC.........

CITY           SKY/WX    TMP DP  RH WIND       PRES   REMARKS
CHARLESTON     CLOUDY    68  66  93 N5        29.99F
BEAUFORT MCAS  CLOUDY    68  67  96 CALM      30.01R
HILTON HEAD    CLOUDY    68  68 100 CALM      30.01S FOG

.........CENTRAL SC.........

CITY           SKY/WX    TMP DP  RH WIND       PRES   REMARKS
COLUMBIA       CLOUDY    67  64  90 CALM      30.02S FOG
ORANGEBURG     CLOUDY    66  64  93 CALM      30.02S FOG
SUMTER SHAW    LGT RAIN  65  64  96 NE2       30.00S

.........WESTERN SC.........

CITY           SKY/WX    TMP DP  RH WIND       PRES   REMARKS
GREENVILLE     NOT AVBL
ROCK HILL      LGT RAIN  62  61  96 CALM      30.04F
ANDERSON       FOG       62  62 100 CALM      30.04S VSB 1/2
CLEMSON        NOT AVBL
GREENWOOD      LGT RAIN  63  62  97 CALM      30.05F FOG


...................COASTAL AND OFFSHORE REPORTS..................

................LOCAL PIERS AND NC RESERVE................


STATION/POSITION TIME  SKY/WX   TEMP    WIND        PRES    VSBY
                                AIR SEA DIR/SP/G
                 (UTC)          (F)     (DEG/KT/KT) (MB)    (MI)
JOHNY MRCER PIER 0412            67 65   20/  4/  5 1015.3F
NC RESRV MASNBRO NOT AVBL
OCEAN CREST PIER 0502            67 65  320/  5/  6 1015.0F
SPRINGMAID  PIER 0406            68 65  310/  4/  5 1016.0F


................COASTAL AND OFFSHORE BUOYS................


STATION/POSITION TIME  SKY/WX   TEMP    WIND        PRES    VSBY
                                AIR SEA DIR/SP/G
                 (UTC)          (F)     (DEG/KT/KT) (MB)    (MI)
DIMNDSHOAL 41025 0450            72 74  180/  6/  8 1015.8F
WVE H/P(F/S)=  5/ 8 WND WVE H/P(F/S)=  2/ 4 SWL H/P/D(F/S/D)=  5/ 80/ 8

CAPE LOOKOUT     0500            68      30/  1/  2 1015.4F
ONSLOW BAY 41036 NOT AVBL
5 WRITEBCH 41038 NOT AVBL
MASONBORO  41110 0419               64                N/A
WVE H/P(F/S)=  3/ 9 WND WVE H/P(F/S)=  3/ 9

WILM HARBR 41108 0411               63                N/A
WVE H/P(F/S)=  3/ 7 WND WVE H/P(F/S)=  3/ 7

27WRITEBCH 41037 0400            70 73  130/  8/ 10   N/A
FRYING PAN 41013 0450            74 73   80/  8/ 10 1015.7F
WVE H/P(F/S)=  5/ 8 WND WVE H/P(F/S)=  2/ 4 SWL H/P/D(F/S/D)=  5/120/ 8

SUNST NRSH 41024 0408            67      20/  4/  6   N/A
CAPRS NRSH 41029 NOT AVBL
EDISTO     41004 0450            71 74   20/  8/  8 1014.6F
WVE H/P(F/S)=  4/ 8 WND WVE H/P(F/S)=  2/ 4 SWL H/P/D(F/S/D)=  3/ 8



..........OFFSHORE BUOYS BEYOND 100 NM OFFSHORE...........
.....IN A TRIANGLE---HAT TO BERMUDA TO BAHAMAS TO HAT.....


STATION/POSITION TIME  SKY/WX   TEMP    WIND        PRES    VSBY
                                AIR SEA DIR/SP/G
                 (UTC)          (F)     (DEG/KT/KT) (MB)    (MI)
150E HAT   41001 NOT AVBL
W BERMUDA  41048 0450            71 71  180/ 12/ 16 1016.0F
WVE H/P(F/S)=  6/ 8 WND WVE H/P(F/S)=  3/ 5 SWL H/P/D(F/S/D)=  5/ 8

ATLANTIC S 41049 0450            74 75  160/ 12/ 14 1019.5F
WVE H/P(F/S)=  8/11 WND WVE H/P(F/S)=  2/ 5 SWL H/P/D(F/S/D)=  8/ 20/11

E BAHAMAS  41046 0450            77 79  120/  8/ 10 1018.8F
WVE H/P(F/S)=  7/10 WND WVE H/P(F/S)=  2/ 4 SWL H/P/D(F/S/D)=  7/ 10/10

NE BAHAMAS 41047 0450            76 77  230/ 10/ 12 1018.0F
WVE H/P(F/S)=  6/ 9 WND WVE H/P(F/S)=  2/ 4 SWL H/P/D(F/S/D)=  7/ 60/ 9

120E CANVRL41010 0420            77 78  180/ 10/ 12 1016.4F

END



USA.gov is the U.S. government's official web portal to all federal, state and local government web resources and services.